Main page
METAR-TAF:

METAR-TAF

Airports :

Pembrey Airport

Pembrey, Wales

latitude: 51-43N, longitude: 004-22W, elevation: 3 m

Current weather observation

The report was made 38 minutes ago, at 13:50 UTC
Wind 20 kt from the South
Temperature 14°C
Humidity 77%
Pressure 1017 hPa
Visibility 10 km or more
Broken clouds at a height of 4400 ft

METAR: EGOP 141350Z 19020KT 9999 BKN044 14/10 Q1017 BLU

Time: 14:28 (14:28 UTC)


TAF: missing

Weather observations and forecasts of more than 4000 airports (METAR and TAF reports).

The available stations are represented by yellow and red dots on the map.

Hover mouse over dot to see the name of the station.

Then click to see weather observations and forecasts.

To change the map : click on the green buttons with a black cross to zoom in, on the green button with a dash to zoom out, or on the green arrows for adjacent maps.


METAR-TAF: